Location: Newark
(27.9675°N, 86.8869°E)
Time: 10:56:32
(UTC+00:00)

Courier 1B Rocket - Pass Details

Date: 23 October 2019
Orbit: 920 x 1202 km, 28.2° (Epoch: 13 November)

Event Time Altitude Azimuth Distance (km) Brightness Sun altitude
Exits shadow 21:41:44 49° 85° (E) 1,171 5.6 -35.1°
Drops below altitude 10° 21:46:09 10° 88° (E) 2,614 8.1 -34.1°
Sets 21:48:46 0° 88° (E) 3,572 9.0 -33.5°
